Wind_Speed
17 14 11 9 5 6 8 7 7 8 9 10 11 12 11 9 10 11 5 4 6 9 13 15 19 18 16 17 18 18 18 17 16 15 16 15 14 13 13 13 12 11 11 11 12 13 12 11 11 10 9 9 9 10 10 9 8 8 8 8 9 9 9 9 8 7 7 7 6 5 5 5 5 5 6 6 7 7 8 7 7 8 9 8 7
18 14 11 10 7 5 7 6 5 5 7 7 7 7 7 6 7 9 6 3 5 6 10 18 23 19 15 14 15 18 19 18 17 17 17 15 14 13 12 11 10 10 11 12 13 12 11 11 11 11 11 11 11 11 10 10 9 9 9 9 9 9 9 9 9 8 7 7 7 7 7 7 7 7 7 8 8 8 8 8 8 9 10 9 9
17 14 12 10 6 5 6 6 5 4 5 5 5 4 4 4 4 6 5 2 5 6 8 17 23 20 14 10 12 17 20 19 19 19 18 16 15 13 11 10 10 10 11 12 12 12 11 11 12 12 12 12 12 11 11 10 9 9 9 9 10 10 9 9 9 9 8 7 8 9 8 9 9 9 9 9 9 9 9 9 9 10 10 11 11
15 13 11 8 6 5 5 6 6 6 5 4 4 3 2 3 2 3 3 2 5 7 9 15 19 19 16 12 13 18 21 21 21 21 19 16 14 12 11 11 11 11 11 12 12 12 12 12 13 13 13 12 12 12 11 11 10 8 9 9 10 10 9 9 9 9 9 9 9 10 9 10 10 10 10 10 10 10 10 11 11 11 12 12 13
15 12 11 9 7 6 5 7 7 7 6 4 4 4 2 2 2 2 3 4 6 8 9 13 17 17 17 15 15 19 22 22 22 21 19 16 14 13 12 12 12 12 12 13 13 13 13 14 14 13 13 12 12 12 11 10 9 8 8 8 9 9 9 9 8 9 9 9 9 10 10 11 11 10 10 11 11 11 12 12 12 13 14 14 14
16 14 14 12 9 6 6 8 8 7 7 6 5 5 4 3 4 4 4 5 7 9 10 13 16 17 17 17 19 22 23 23 23 21 19 17 15 14 14 13 13 13 13 13 13 14 14 14 14 14 13 13 12 11 10 9 8 7 7 8 8 8 9 9 9 9 10 10 10 10 11 12 12 12 11 12 12 12 13 13 14 15 15 15 15
16 15 15 13 10 7 7 9 9 8 8 7 6 6 6 4 5 6 6 6 8 10 11 13 16 18 19 21 24 26 25 24 24 22 19 18 17 16 15 14 13 13 13 13 13 13 14 13 13 14 14 13 12 11 10 9 8 8 7 8 8 9 10 10 10 10 10 11 11 11 11 12 12 12 12 13 13 13 13 14 14 15 16 16 16
16 15 14 13 11 8 8 10 10 9 8 8 7 7 7 6 6 8 8 7 8 11 12 15 17 18 21 24 26 26 25 25 23 21 20 19 18 16 15 15 15 14 13 13 13 13 13 13 13 13 13 13 12 12 11 10 9 9 8 8 8 9 10 10 10 10 10 11 11 11 11 11 12 12 12 13 13 14 14 15 15 16 17 17 17
16 17 18 16 12 9 9 10 10 9 9 8 8 8 8 7 9 10 9 8 10 13 15 16 17 18 21 24 26 26 25 24 23 22 22 20 19 17 18 18 16 15 14 14 13 13 13 12 12 12 12 12 12 12 12 11 10 10 9 9 9 9 9 9 9 9 10 11 11 10 11 11 12 12 12 13 14 14 15 15 16 16 17 16 17
17 18 19 16 11 10 10 10 9 9 9 9 8 9 9 9 10 11 10 10 12 14 16 17 17 18 21 23 25 25 25 25 25 25 24 22 20 19 19 19 17 16 15 14 13 13 13 13 13 12 12 12 11 11 11 11 11 10 10 10 10 9 9 9 9 9 9 10 10 10 11 12 13 13 13 14 15 15 16 16 16 16 16 16 17
17 18 17 13 10 10 10 10 10 9 9 9 9 9 9 10 11 11 11 11 13 15 17 16 16 18 20 21 23 25 27 28 28 27 25 23 21 20 19 18 16 15 14 14 14 13 14 15 15 15 14 13 13 11 11 11 11 11 11 11 11 11 11 10 10 9 9 9 10 10 11 12 13 13 14 15 15 16 16 15 16 16 16 16 16
19 18 16 13 12 11 10 10 10 9 8 8 7 8 9 11 12 12 12 12 13 15 15 16 17 19 19 19 22 26 29 31 30 28 25 23 22 21 20 18 16 15 15 15 15 15 15 15 16 16 16 16 15 14 14 14 14 14 14 14 14 14 13 13 13 12 11 11 11 11 11 12 13 13 14 15 16 16 15 15 15 16 16 16 16
21 20 17 16 16 14 12 12 11 9 8 7 7 8 10 12 13 13 13 13 13 14 14 15 17 19 20 21 25 28 30 30 28 27 25 24 23 22 20 17 15 15 15 16 16 16 16 15 16 16 16 16 16 15 16 15 16 16 15 15 15 15 15 15 14 13 12 11 11 11 11 11 12 13 14 15 16 16 15 15 16 16 16 17 17
25 23 21 20 20 16 15 14 12 10 9 8 8 8 10 12 13 13 13 13 14 13 14 16 17 19 21 24 26 28 29 28 26 25 25 24 24 22 19 16 15 15 15 16 17 16 16 15 15 15 15 15 15 15 15 15 15 15 14 15 15 15 14 13 12 12 10 9 9 9 10 11 12 12 14 15 16 16 16 16 16 16 17 18 18
29 27 25 24 21 18 17 16 13 11 10 10 9 9 10 13 13 14 14 14 15 15 16 18 19 20 22 24 27 29 30 29 27 25 24 24 22 20 17 14 14 15 16 17 17 16 15 14 13 13 13 13 14 14 14 14 14 14 14 14 15 15 14 12 10 9 8 7 8 8 10 11 11 12 13 14 15 16 16 16 17 17 18 18 19
34 34 32 28 23 19 19 18 14 13 12 11 11 11 12 13 14 15 16 16 17 17 18 21 22 22 23 24 26 29 31 30 29 27 26 24 22 20 18 16 15 16 17 17 16 15 14 13 12 13 13 13 13 13 13 13 14 14 14 15 16 15 14 12 10 9 9 9 9 10 11 11 12 13 14 14 15 15 16 17 18 18 19 19 19
34 36 36 30 24 21 20 17 14 13 12 12 12 13 14 15 17 17 18 18 18 17 19 22 23 23 24 24 25 27 29 29 29 28 27 26 24 23 23 20 18 18 18 16 16 15 14 13 13 13 13 13 13 13 13 13 13 13 13 14 15 15 14 12 11 11 12 11 11 11 11 12 13 14 14 15 15 15 16 17 18 19 19 19 19
29 32 33 26 21 20 19 17 15 13 12 12 13 14 15 17 19 19 19 19 18 18 18 20 21 22 23 22 21 24 26 26 27 26 25 25 25 25 24 21 20 19 18 17 17 17 15 14 14 14 14 13 13 13 12 12 12 11 11 12 12 12 13 13 13 13 13 13 12 12 12 13 14 14 15 15 15 15 16 17 18 18 18 18 18
30 33 33 25 20 20 19 17 15 13 12 13 14 16 18 20 19 19 18 16 14 14 16 18 21 23 22 19 19 20 22 23 23 22 22 23 24 25 23 21 21 20 19 19 18 18 17 16 16 16 15 14 13 13 13 12 11 11 11 11 10 11 12 13 13 13 13 13 13 14 14 14 14 15 15 15 15 15 16 17 17 18 17 17 17
32 34 36 28 23 21 20 19 16 14 14 14 16 19 21 21 18 14 13 11 11 14 17 19 21 23 21 20 19 19 20 20 19 19 19 20 21 22 22 21 21 21 20 20 19 19 18 17 17 17 16 16 15 14 14 13 11 11 12 12 11 11 12 13 13 14 14 14 14 14 14 14 14 14 14 15 16 16 17 18 18 18 18 18 18
31 36 36 29 26 24 22 21 18 17 16 16 17 17 18 19 15 11 12 13 14 16 18 20 22 22 22 21 20 19 19 18 16 15 16 17 18 19 20 21 21 21 21 21 21 21 20 18 18 18 18 17 16 15 15 14 12 13 13 13 13 13 13 13 14 14 14 14 14 13 13 13 13 14 14 15 16 17 17 18 18 18 18 19 19
34 38 33 28 29 26 22 21 21 20 20 19 16 13 13 15 15 15 18 18 17 18 20 22 23 22 22 21 20 19 18 16 15 14 14 15 16 17 17 18 19 20 21 22 23 22 21 20 20 20 20 19 18 16 16 15 14 14 14 14 14 13 13 14 14 14 13 13 13 12 12 12 13 14 15 15 16 17 17 17 17 17 18 18 19
36 36 30 27 29 26 22 21 22 22 22 20 17 13 12 15 17 19 20 19 17 18 21 23 23 22 22 22 21 21 19 17 16 15 14 14 15 15 15 16 18 19 20 21 22 21 21 21 21 22 21 21 19 18 17 16 15 15 15 15 15 14 14 14 13 13 12 12 12 12 12 12 13 14 14 15 15 15 16 16 16 17 17 17 17
32 30 26 25 26 23 21 21 21 22 22 20 18 16 15 15 16 18 19 18 18 19 20 22 22 22 22 22 23 23 21 18 17 17 16 15 16 16 16 17 18 18 18 19 20 20 20 21 21 22 22 22 21 19 18 17 16 16 16 17 17 16 15 13 12 12 11 11 12 12 13 13 14 14 14 15 15 15 15 15 15 15 15 15 15
28 28 25 25 25 23 22 22 22 22 21 19 18 17 17 17 17 19 22 22 22 21 22 22 24 26 26 24 23 23 22 21 20 19 18 17 17 17 18 20 20 20 19 20 20 20 21 20 21 21 22 22 21 21 19 18 18 18 18 19 18 17 16 14 13 12 11 11 12 13 13 14 14 14 14 14 14 13 13 13 13 13 13 13 14
29 28 27 27 27 25 24 24 24 24 23 21 20 20 21 22 22 23 23 23 24 24 25 26 27 28 29 27 25 24 23 23 22 21 20 18 17 17 19 21 22 22 22 21 21 22 21 20 20 21 22 23 22 22 21 21 20 20 20 21 20 18 17 16 14 13 12 12 12 13 13 13 13 13 13 12 12 12 12 12 12 12 13 14 14
30 29 28 28 28 27 26 26 25 26 27 24 22 22 22 24 24 23 22 21 22 23 25 27 28 28 29 30 29 27 25 23 23 22 20 19 18 18 19 21 21 22 23 23 22 22 21 20 21 21 22 23 24 24 24 23 23 22 22 22 21 20 18 17 16 14 14 14 14 13 14 14 14 14 14 13 13 14 14 14 14 15 16 16 17
29 30 30 29 29 28 27 27 27 28 27 24 22 22 22 22 22 20 19 18 17 19 22 25 27 26 26 26 27 28 27 24 22 22 20 19 20 20 19 20 21 21 22 23 23 23 23 22 22 22 23 24 24 24 25 25 24 24 24 23 23 21 19 18 18 17 16 16 16 16 16 16 16 16 16 16 16 16 17 17 17 17 17 18 18
25 27 28 28 27 26 27 27 27 27 25 22 21 21 21 20 19 16 15 15 16 17 19 21 23 24 23 21 20 20 21 21 20 21 20 20 21 20 19 20 20 19 19 20 21 23 24 24 23 23 24 24 25 25 25 25 24 24 24 23 22 21 20 19 19 18 17 18 18 18 18 19 19 18 18 18 18 18 18 18 17 17 17 17 17
20 21 24 24 24 25 26 26 25 24 23 21 21 22 22 20 18 15 14 16 16 15 16 18 21 21 22 22 19 18 18 18 20 21 20 20 21 21 21 21 21 20 19 20 22 23 25 25 24 24 25 25 25 25 25 25 25 24 23 23 22 21 21 20 20 20 20 20 21 21 21 22 21 21 21 20 19 19 19 19 18 18 18 17 17
17 17 18 19 20 23 24 25 25 22 19 19 20 22 23 22 19 17 16 16 16 15 14 14 15 16 18 21 21 20 20 20 20 20 20 20 21 22 23 23 23 22 22 23 24 24 25 26 26 26 27 27 26 26 26 25 25 25 24 23 23 22 22 22 22 22 23 24 24 24 24 24 24 24 23 23 22 21 21 21 21 20 20 20 19
18 17 16 16 17 19 21 24 25 22 19 18 19 21 24 23 21 19 18 16 16 18 17 14 13 16 20 22 22 22 20 19 19 20 20 20 21 22 24 24 23 23 23 23 23 24 25 26 27 28 28 28 28 28 27 27 27 26 25 25 24 24 24 24 24 25 26 26 27 27 27 27 27 27 26 25 25 24 24 24 24 24 24 23 23
22 21 20 19 19 19 20 22 23 23 21 20 19 21 22 21 20 19 18 17 17 21 21 18 17 17 19 21 21 21 19 18 19 20 21 21 21 22 24 24 23 22 22 22 23 23 25 27 28 29 30 30 30 30 29 28 27 27 26 26 26 26 26 26 27 27 28 29 29 30 30 30 29 29 29 28 28 28 28 28 29 28 28 27 27
21 21 20 20 20 21 22 22 23 24 23 21 20 21 21 20 21 21 20 19 20 21 20 19 19 19 19 20 20 20 19 19 20 21 22 23 23 23 23 23 22 22 22 22 23 24 26 27 28 29 30 31 31 30 29 29 28 27 27 26 26 27 27 28 29 30 31 31 32 32 32 32 32 32 32 31 31 32 32 33 33 33 33 32 32
21 21 21 21 22 22 23 23 23 24 24 24 23 24 24 23 23 23 21 21 23 24 22 21 21 20 20 22 22 23 24 23 22 22 23 25 26 25 24 23 23 23 23 23 25 26 27 29 29 30 30 31 31 30 30 29 29 28 28 28 28 29 30 30 31 32 33 33 34 34 35 35 35 35 35 35 35 36 36 37 37 38 38 38 37
23 23 24 23 24 24 24 24 24 24 25 25 26 27 27 26 25 25 23 22 24 24 22 21 22 21 20 18 17 18 19 18 19 20 21 22 24 24 23 23 23 24 25 26 28 29 30 31 31 31 31 32 32 31 31 31 30 30 30 31 31 32 32 33 33 34 35 35 36 37 37 37 38 38 38 39 40 40 41 40 41 42 42 42 42
25 25 26 26 25 25 25 25 25 25 26 27 27 28 28 27 26 27 26 25 25 23 19 16 17 21 22 19 17 18 17 14 16 17 17 19 21 21 22 23 25 27 28 28 28 28 30 31 32 32 33 34 34 34 33 32 31 31 33 34 34 34 34 35 35 36 36 37 38 39 40 41 41 41 42 42 43 44 44 44 45 45 45 44 44
29 28 27 26 25 23 24 24 25 26 27 27 28 28 28 28 27 27 27 28 27 27 25 24 22 22 23 23 24 25 23 21 22 21 21 22 24 25 26 27 27 29 29 28 27 27 28 30 31 33 35 36 36 36 35 34 33 34 35 37 38 38 38 39 39 40 40 40 41 42 43 43 44 44 45 45 46 47 47 48 48 48 47 45 44
30 28 26 24 23 23 24 26 27 27 27 27 28 28 28 28 27 26 25 25 25 25 27 29 30 29 28 27 26 26 26 25 26 25 25 25 26 28 30 30 29 29 29 29 29 29 30 31 32 34 36 37 37 37 38 39 40 40 41 41 41 42 42 42 43 44 45 45 46 46 46 46 46 47 48 48 49 49 49 50 50 49 49 48 46
30 29 27 26 26 27 29 30 30 30 29 29 30 29 29 29 28 27 26 26 25 24 24 26 28 30 31 30 29 29 29 28 28 27 25 25 26 27 28 29 29 31 32 33 34 34 33 33 34 35 37 38 39 40 42 45 47 47 47 46 46 46 46 46 46 47 48 49 49 49 49 49 49 50 52 53 53 53 52 53 53 52 51 50 49
32 31 29 28 28 29 30 31 31 31 31 30 31 31 31 32 32 32 31 31 30 30 30 29 29 31 32 31 31 31 31 30 30 29 27 27 27 27 27 26 27 29 31 33 35 37 37 37 37 38 39 41 42 44 46 48 49 50 50 50 50 50 50 51 51 51 52 53 53 52 51 52 52 53 54 55 55 54 54 54 54 54 53 52 52
29 28 27 27 28 28 29 30 30 31 31 31 32 33 34 35 35 36 35 34 34 33 34 34 34 34 35 35 35 35 34 33 33 32 31 31 32 33 33 33 33 34 35 35 36 37 38 38 38 38 39 41 43 44 46 48 50 51 52 52 52 53 53 54 55 55 55 54 54 54 53 53 53 53 53 53 54 54 55 55 54 54 55 55 56
26 26 27 28 29 29 30 31 32 33 33 34 35 36 36 37 38 38 39 39 38 37 37 37 37 37 38 38 39 39 38 38 38 38 39 39 39 40 41 41 41 42 42 42 42 43 43 44 44 43 44 45 46 47 49 51 53 54 54 54 55 55 55 56 56 56 55 55 55 55 55 55 55 55 56 57 58 59 59 59 58 57 57 58 59
26 27 29 30 31 32 33 34 35 36 37 38 38 39 39 40 40 41 41 42 43 43 42 42 43 43 43 43 44 45 45 46 47 48 48 48 48 47 47 48 48 49 49 50 51 51 51 52 52 52 52 52 52 53 54 54 54 55 55 56 56 57 58 58 58 57 57 58 58 58 59 59 60 60 61 61 62 62 62 62 63 63 63 64 64
27 28 30 31 32 34 35 35 36 37 38 38 39 40 41 41 42 43 43 44 45 46 46 46 47 47 47 47 48 49 51 52 52 52 52 51 51 51 51 51 52 53 54 55 55 56 56 56 56 56 56 55 55 56 56 56 57 58 59 59 59 60 60 60 60 60 60 60 60 60 60 60 61 61 61 62 62 63 64 65 65 66 67 67 67
28 29 30 31 32 34 35 35 36 37 37 38 38 38 39 40 40 41 42 43 44 45 46 47 48 49 50 50 51 52 53 54 54 54 54 54 53 53 54 54 55 55 56 56 57 57 57 57 57 57 57 57 57 58 59 60 61 62 63 63 63 62 62 62 62 61 61 61 61 60 60 61 61 62 63 63 64 65 66 67 67 68 68 68 69
30 30 31 32 32 33 34 34 35 35 36 36 37 37 37 37 38 38 39 40 41 42 43 45 46 47 48 49 50 51 51 52 53 53 53 53 53 54 54 55 55 56 56 56 57 57 57 57 56 56 56 57 57 58 59 60 61 61 62 62 63 63 63 63 62 62 62 62 61 62 62 63 63 64 65 66 67 68 69 70 71 72 72 72 72
31 31 32 32 33 33 33 34 34 35 35 35 35 36 36 36 36 37 38 39 39 40 41 42 42 43 44 45 46 47 48 48 49 49 50 51 51 51 52 53 53 54 55 55 56 56 57 57 57 57 57 57 57 58 59 59 60 60 61 61 62 62 63 63 63 63 63 64 64 65 66 66 66 67 68 69 70 71 72 73 74 75 75 76 76
32 33 33 34 34 35 35 35 36 36 36 36 36 36 37 37 37 37 38 39 40 40 41 41 42 43 44 45 45 46 47 47 48 49 50 51 51 52 53 54 54 55 55 56 56 57 57 57 57 57 57 57 58 58 59 60 60 61 61 62 63 63 64 64 65 66 67 67 68 69 69 69 69 70 70 71 72 73 74 75 76 76 76 76 76
37 37 37 38 38 38 39 39 39 40 40 40 40 40 40 40 40 40 41 42 42 43 43 44 45 45 46 47 48 48 49 50 51 52 53 54 55 55 55 56 56 57 57 57 58 58 58 58 58 59 59 59 59 60 60 61 62 63 63 64 65 65 66 67 68 70 70 70 70 70 70 70 70 71 71 72 72 73 74 74 74 75 75 74 74
40 40 40 41 41 42 42 43 43 43 43 44 44 44 44 44 44 45 45 46 46 47 47 47 48 49 50 50 51 52 52 53 54 54 55 56 57 57 57 58 58 58 59 59 59 60 60 60 60 60 60 61 61 62 62 62 63 64 65 65 66 67 67 68 68 68 68 67 67 66 66 66 67 67 68 68 69 69 70 70 70 71 70 70 70
Wind_Direction
225 230 234 239 257 325 333 335 335 336 333 319 312 324 337 328 322 332 322 243 236 227 222 206 186 183 193 202 210 214 213 212 211 208 202 199 202 207 212 220 226 226 224 223 227 234 238 241 243 247 251 254 254 256 260 256 246 243 248 255 260 262 261 259 255 247 247 250 246 241 241 239 234 233 241 243 241 241 243 243 242 248 260 266 271
222 226 236 242 248 293 318 329 340 338 332 326 321 330 340 330 323 330 327 268 245 230 219 204 190 190 199 206 213 209 206 207 204 200 198 201 207 212 216 223 228 231 230 227 226 228 232 237 244 249 250 251 251 251 256 258 252 245 248 254 257 258 257 259 258 251 248 247 245 246 247 247 247 247 250 250 248 248 248 247 246 250 262 272 276
221 227 241 243 241 270 297 311 331 329 316 318 317 324 336 328 326 320 321 297 242 224 213 208 205 210 217 225 226 209 202 202 198 196 198 204 209 211 216 220 222 224 226 228 228 227 229 234 242 246 247 249 249 249 250 255 256 249 249 255 259 259 257 258 259 257 255 249 245 247 248 248 252 256 259 258 257 260 262 261 257 256 261 269 275
218 228 241 240 234 254 282 294 310 311 295 302 307 302 312 307 316 305 290 259 232 225 214 213 219 227 234 242 233 211 203 200 197 199 202 206 208 208 211 214 215 217 220 226 228 229 229 232 237 240 243 245 247 248 247 251 253 250 251 257 263 263 260 259 260 258 256 254 252 251 252 253 257 264 268 269 269 270 271 269 267 266 265 266 269
211 220 229 230 228 240 273 287 297 300 279 276 288 275 261 265 262 252 241 230 229 231 224 221 224 228 235 239 223 208 204 201 200 202 203 203 204 205 207 209 212 213 216 220 223 227 227 228 230 232 236 239 242 245 246 248 248 246 249 255 261 260 258 259 258 253 254 259 260 256 256 260 264 272 276 276 275 273 271 270 269 268 267 268 268
214 220 222 221 220 231 268 281 290 293 267 261 276 264 249 244 239 223 217 224 227 230 234 232 223 219 227 226 211 204 204 201 200 201 199 199 201 205 206 209 211 212 215 217 220 224 226 227 227 226 229 232 235 240 243 244 244 241 239 242 246 247 250 254 254 252 255 261 263 260 259 262 267 274 278 277 275 274 274 273 271 269 269 271 271
218 224 222 219 216 229 260 275 288 289 262 256 264 253 245 242 234 220 215 220 224 227 231 229 217 212 219 218 208 205 203 199 199 197 195 199 205 209 212 214 215 215 217 219 220 223 225 227 228 228 228 228 230 234 236 239 238 237 235 235 235 237 242 247 251 254 258 262 264 264 265 267 271 275 277 276 275 275 275 273 271 270 271 273 274
215 213 211 217 220 232 255 272 286 281 255 252 253 241 238 238 228 220 219 217 218 223 223 220 214 211 216 215 212 210 203 198 198 198 198 204 212 220 226 225 222 220 222 223 223 224 225 227 230 232 232 231 231 230 232 235 236 235 235 235 236 238 242 245 250 256 262 266 269 271 272 273 274 275 275 274 272 270 268 267 267 268 271 274 277
212 207 205 213 223 235 255 271 280 270 249 247 243 231 231 232 225 222 222 218 214 219 221 220 219 218 219 217 216 213 204 197 199 201 205 212 220 228 232 230 226 225 227 227 226 226 226 226 227 232 234 236 235 233 232 233 235 236 236 236 236 239 242 246 252 258 264 270 274 276 276 274 274 275 274 271 269 268 268 267 268 269 272 276 279
215 215 215 217 225 239 257 269 270 262 249 242 232 227 227 224 221 223 223 218 214 216 221 223 223 225 225 223 221 214 202 198 201 205 211 220 226 230 231 231 230 229 230 230 228 227 228 226 225 226 228 230 234 236 236 235 236 236 237 238 240 241 242 244 249 256 264 271 277 279 278 275 274 273 272 271 272 273 275 275 275 275 278 280 281
219 227 230 232 239 248 258 265 264 259 247 236 229 227 225 220 220 224 223 217 214 216 222 224 225 227 226 225 222 212 201 201 205 209 216 224 230 232 232 232 232 232 233 233 231 227 227 227 225 224 224 226 229 233 238 242 244 245 245 246 248 249 250 250 252 255 259 264 270 275 276 276 275 275 275 277 278 279 280 280 279 280 281 282 282
224 232 240 248 255 257 260 261 260 254 239 229 228 227 224 222 222 222 218 212 210 214 219 222 223 225 224 221 218 211 206 207 211 214 221 227 232 233 233 233 234 234 233 231 228 224 223 223 223 224 225 227 229 233 238 243 247 250 253 255 256 258 259 260 260 260 261 262 265 269 271 273 276 278 279 281 282 281 281 280 279 280 282 284 284
231 237 245 251 254 256 260 261 254 244 233 225 226 228 225 223 219 214 208 205 206 209 213 218 221 221 219 215 214 214 212 213 216 221 226 231 232 231 230 231 233 232 229 225 222 220 219 218 218 221 224 228 231 235 239 243 248 251 254 256 258 259 261 262 263 263 263 262 263 264 266 269 272 275 278 280 281 280 280 279 279 282 284 285 285
236 240 241 243 247 250 256 257 247 236 234 232 233 231 222 216 212 208 204 204 204 206 211 218 220 219 217 214 215 217 217 218 221 226 228 228 227 226 226 229 232 231 227 223 220 218 217 217 218 221 225 230 234 238 242 245 249 252 255 257 259 259 261 262 261 258 255 253 255 259 263 266 269 274 277 279 280 281 281 281 281 283 283 283 283
235 235 233 234 237 242 248 249 242 236 237 240 240 233 218 212 211 208 206 204 204 206 212 219 222 221 220 217 217 220 223 226 230 231 230 227 227 229 232 236 239 234 227 222 220 219 218 216 220 225 229 233 236 239 243 246 249 253 257 260 261 261 261 260 256 250 245 245 247 254 259 263 268 272 274 276 277 279 281 282 283 283 284 285 285
232 223 219 221 222 230 240 243 243 243 243 243 240 234 222 215 212 209 206 203 203 206 212 219 223 222 223 222 220 223 228 233 236 238 239 240 241 242 245 248 246 236 225 220 220 221 221 217 219 225 229 233 235 237 241 247 252 255 257 259 260 258 255 250 246 244 245 246 246 251 257 261 267 270 271 273 275 278 282 283 285 287 287 287 286
241 222 209 203 203 215 230 239 248 249 243 240 237 234 229 222 218 214 211 209 209 210 212 218 224 223 224 227 226 227 232 237 240 243 246 250 249 247 249 249 243 232 223 219 220 223 224 222 221 223 226 230 235 240 243 246 250 252 255 258 256 251 246 240 238 241 244 246 248 252 257 261 266 268 270 273 276 279 283 285 287 288 287 286 285
252 232 210 199 202 215 225 234 244 244 236 235 236 235 232 229 224 220 217 217 217 217 216 219 225 228 231 236 236 236 239 243 245 247 249 250 249 246 245 241 232 226 220 217 220 223 225 226 227 227 228 230 235 239 242 243 245 250 254 254 248 241 237 234 236 239 241 244 247 249 253 256 260 263 266 270 273 277 282 284 284 284 283 283 283
246 229 211 208 217 219 222 229 234 236 233 232 235 236 233 229 226 224 224 224 226 229 228 226 227 230 235 240 241 240 242 244 246 247 247 247 244 239 235 228 222 221 218 217 221 224 226 228 230 232 232 232 233 235 239 241 242 248 250 247 244 241 239 237 236 237 239 240 241 243 245 248 252 256 261 265 269 273 276 276 276 276 277 278 278
233 215 204 212 218 211 215 223 227 234 232 229 237 240 236 230 226 231 241 242 241 238 233 229 228 229 231 234 235 234 235 238 240 241 242 240 235 229 223 217 216 220 220 221 224 227 228 229 232 235 234 232 231 232 237 240 241 246 246 244 247 251 248 243 241 240 240 240 240 241 242 244 249 254 259 264 267 268 269 269 269 270 271 272 273
219 200 201 216 215 205 210 218 225 234 231 230 241 246 241 235 233 250 267 263 248 233 227 227 228 228 228 229 230 230 231 234 235 237 236 231 224 218 214 212 216 222 224 225 228 229 229 231 233 235 235 232 232 234 237 240 243 245 246 247 252 255 251 247 246 247 247 247 247 247 247 249 253 256 260 264 265 266 266 268 269 270 271 272 273
200 191 200 217 215 207 209 216 225 231 230 233 245 255 254 249 252 263 268 264 251 234 227 228 229 229 230 230 230 231 234 238 238 234 230 223 216 212 211 216 223 229 231 232 232 232 230 231 232 235 235 234 234 237 240 243 246 247 248 250 254 254 251 249 250 252 256 257 259 259 259 258 257 259 261 264 266 268 269 271 272 274 274 275 276
186 189 201 212 211 209 211 218 223 227 231 238 244 250 250 252 256 257 257 255 247 235 230 229 230 231 231 230 230 231 233 237 240 238 232 225 221 222 227 232 236 239 240 239 238 238 235 233 232 233 235 236 237 240 243 246 249 251 250 250 252 252 250 248 252 257 263 268 270 270 268 264 259 258 260 262 266 269 271 273 274 276 277 277 278
188 196 208 210 209 212 216 223 227 228 234 240 242 245 244 248 252 247 244 243 239 234 228 226 228 230 231 233 234 233 232 234 237 236 234 231 231 235 240 244 246 248 249 249 248 249 246 242 239 236 236 237 239 241 244 247 251 252 251 249 250 250 247 248 251 256 262 268 272 271 268 264 260 259 259 261 263 265 268 271 274 277 279 281 282
210 210 216 216 215 218 220 225 230 232 238 243 246 248 245 246 243 235 235 236 236 233 227 225 231 234 235 237 237 237 237 236 234 233 233 233 236 240 244 247 249 249 250 253 256 257 256 254 249 244 240 239 240 241 244 247 251 252 251 250 250 250 248 246 246 249 255 260 264 265 263 261 260 260 260 261 261 262 264 268 273 277 281 284 285
222 216 216 215 215 216 218 223 229 233 238 243 248 251 248 246 240 234 237 241 241 239 235 234 237 240 241 241 240 243 243 238 234 232 230 231 237 246 252 254 253 250 249 250 253 257 260 261 258 252 246 243 243 243 245 248 251 251 250 249 249 249 247 245 244 244 248 251 254 256 257 259 262 263 263 263 262 263 265 269 273 275 278 280 281
218 211 209 208 208 211 215 221 226 230 234 236 241 246 247 244 239 235 241 247 247 245 242 240 241 244 245 243 245 251 250 240 233 231 229 235 247 257 260 260 259 255 251 248 250 253 257 261 261 257 251 248 248 248 249 251 251 250 250 249 249 248 246 246 247 247 246 248 249 251 254 259 262 263 265 266 265 265 265 267 269 270 272 274 274
213 207 206 205 206 208 214 220 225 230 233 234 238 242 241 240 238 236 241 248 249 246 245 244 244 246 246 248 253 256 252 243 237 234 235 246 261 266 262 259 260 258 253 250 251 254 255 257 258 255 253 252 252 252 252 252 251 250 250 251 251 250 249 250 251 251 250 250 252 254 257 260 262 264 266 266 266 265 263 263 263 263 264 266 268
212 208 206 205 207 210 215 221 228 233 234 235 240 243 242 240 238 236 243 251 252 250 248 246 246 246 245 249 256 252 243 240 240 239 243 252 264 270 266 261 259 255 250 249 252 257 258 256 254 253 254 254 255 255 254 253 252 251 252 254 254 254 254 255 256 256 255 256 258 259 260 261 263 264 264 264 263 262 261 261 261 262 264 267 270
211 208 206 207 210 212 215 220 226 230 230 229 234 241 245 243 238 240 250 253 252 252 250 244 243 243 239 240 245 242 238 242 245 244 248 256 264 270 267 260 255 249 246 247 254 260 261 259 255 253 254 255 255 254 253 252 252 251 251 253 254 254 255 256 258 259 260 261 261 262 262 263 263 263 263 263 262 260 260 261 263 264 267 270 273
204 203 204 208 212 214 218 224 229 232 229 225 228 238 243 243 241 245 252 252 248 247 247 241 238 241 242 242 246 247 246 250 249 245 249 258 264 269 267 259 252 250 251 255 259 261 261 260 257 256 255 255 254 252 251 250 250 250 250 250 252 254 255 257 259 260 262 264 264 265 265 265 265 264 265 265 265 264 263 264 264 265 267 271 274
219 220 220 219 219 219 222 229 235 237 234 229 230 235 239 241 242 243 245 245 242 241 246 251 256 257 254 249 250 251 252 251 246 243 248 256 259 263 263 258 252 251 254 256 257 257 257 258 258 257 256 255 253 251 248 247 247 249 250 251 253 255 256 258 260 261 263 265 266 268 268 269 268 269 270 271 272 272 271 270 269 268 269 272 275
233 236 236 233 228 227 228 232 237 239 238 233 230 230 233 237 240 240 241 242 240 239 246 260 268 260 248 245 249 253 254 251 247 247 252 255 256 258 258 254 251 249 249 250 252 254 255 256 257 257 255 253 252 250 248 247 248 250 253 255 257 259 260 261 262 263 264 266 267 268 269 269 269 270 273 275 277 278 278 276 273 271 271 272 273
235 234 233 231 230 230 231 233 236 240 242 240 236 234 235 236 238 240 241 241 240 241 248 260 265 256 245 247 254 257 256 255 254 255 256 256 257 256 252 249 247 243 241 245 252 254 253 253 252 253 254 253 250 248 248 249 251 254 256 258 259 261 262 263 264 265 266 267 268 268 268 268 268 269 271 273 276 279 279 277 276 275 274 273 272
232 229 227 226 226 228 228 230 233 237 241 244 244 245 245 244 243 242 241 241 242 246 252 258 259 256 252 255 260 260 257 257 259 261 262 260 257 253 250 249 249 247 247 252 256 257 254 252 249 248 249 249 248 247 248 250 252 254 256 257 258 259 261 263 264 265 266 267 267 268 268 268 269 269 270 271 273 274 274 274 275 276 277 276 274
233 231 230 225 221 222 224 226 230 233 238 242 245 247 249 249 248 245 242 241 244 248 255 260 260 256 252 254 258 255 253 257 262 261 260 258 253 249 250 252 254 256 259 262 262 261 258 255 251 249 249 248 248 248 249 250 251 252 254 255 257 259 261 263 265 266 266 267 267 267 267 268 269 271 272 273 273 272 272 273 273 274 277 278 276
238 236 233 225 218 219 224 228 231 234 236 238 241 244 246 246 247 247 245 244 244 243 240 241 246 247 245 242 238 239 246 254 255 249 246 249 251 252 255 259 261 262 262 262 262 263 262 259 257 255 254 251 249 248 248 249 250 253 255 257 258 261 262 264 265 267 267 267 267 267 267 268 270 272 275 275 274 273 274 274 275 275 278 280 278
240 234 228 223 219 221 227 230 232 233 235 237 238 239 239 241 244 248 250 250 249 244 235 229 230 235 240 239 236 238 242 243 243 245 249 255 261 263 264 265 264 262 259 258 258 259 259 259 257 257 256 253 250 248 246 247 251 257 261 261 261 262 263 263 265 266 266 266 267 268 268 268 270 272 274 275 275 274 274 275 275 276 278 279 277
235 224 218 220 224 228 232 232 232 233 234 236 235 232 233 237 242 246 249 250 249 245 240 238 238 238 240 241 241 241 241 240 243 249 255 261 267 270 271 270 267 262 259 259 260 260 259 259 259 258 258 255 252 250 249 251 258 264 267 266 264 263 263 264 264 265 265 265 266 268 269 269 270 272 273 274 274 274 274 274 275 276 277 276 273
225 220 223 229 231 230 230 230 231 232 233 233 232 231 234 240 243 245 246 246 245 245 243 243 240 237 237 240 242 242 241 240 243 245 249 257 263 264 265 267 267 265 263 263 263 261 259 259 259 259 258 258 257 256 256 258 262 265 267 267 266 265 264 264 264 266 266 266 266 267 268 269 270 272 273 274 275 275 275 275 275 275 275 274 272
222 224 230 232 229 226 226 228 229 231 233 234 235 238 243 248 251 252 253 252 249 247 248 248 245 240 238 240 243 243 241 240 240 240 242 246 249 250 252 254 257 260 262 263 263 261 258 258 260 259 259 259 259 260 260 261 262 264 265 267 267 266 265 265 266 268 269 267 266 267 268 269 270 271 272 273 274 274 275 275 274 274 273 272 270
223 225 226 226 225 225 226 228 230 232 235 236 238 242 247 251 254 255 256 256 252 249 248 249 247 245 244 245 247 247 247 244 243 243 244 246 247 250 251 252 252 255 258 259 260 260 260 262 265 264 262 261 260 262 263 264 266 267 267 268 269 269 268 268 269 271 271 269 268 268 269 270 270 270 270 270 272 273 273 273 273 272 272 270 269
227 229 231 232 233 234 234 236 238 240 241 242 243 244 245 247 249 251 253 254 253 250 247 244 244 245 246 247 248 249 250 249 249 251 254 255 256 255 255 255 255 256 258 259 259 260 261 263 265 266 266 266 266 267 268 269 270 270 269 268 268 268 268 267 267 268 269 269 268 269 269 270 269 269 268 269 270 271 271 271 270 269 268 268 268
237 238 240 242 243 244 245 245 245 246 246 246 246 246 245 245 245 246 247 249 249 250 248 246 246 247 248 248 248 249 250 252 256 258 260 260 260 259 258 257 258 259 260 261 262 263 265 266 267 268 269 270 269 269 269 269 269 269 269 268 268 267 267 267 267 267 267 267 268 268 268 269 269 268 267 267 268 268 267 267 267 267 266 266 266
245 244 244 245 246 247 248 248 248 248 248 248 248 248 248 247 247 246 246 246 247 248 249 249 250 251 252 251 251 252 253 255 257 259 260 261 261 261 261 260 261 261 262 263 264 266 267 268 269 270 270 270 269 268 267 267 267 268 268 269 269 269 269 269 269 269 269 268 268 269 268 268 268 268 268 267 267 267 266 266 266 266 266 266 266
250 248 247 247 247 247 247 248 248 247 247 247 247 248 248 248 248 249 248 248 249 249 250 250 251 252 253 254 255 255 256 258 259 259 260 261 262 262 262 263 263 264 265 266 267 267 268 269 269 269 270 270 269 268 267 267 267 268 269 269 270 270 270 270 270 270 269 269 269 269 269 269 269 269 269 269 268 268 268 268 267 267 267 267 267
250 250 249 249 248 247 247 247 247 247 247 247 248 248 249 249 250 250 250 251 252 252 252 253 253 254 255 256 256 257 258 260 261 262 262 263 263 264 264 264 265 265 266 267 268 268 269 269 269 269 269 269 269 269 268 268 268 268 269 269 270 270 270 270 270 270 270 270 271 271 271 271 271 270 270 269 269 268 268 268 268 268 268 268 268
252 251 251 251 250 249 248 248 248 249 249 249 250 250 250 251 251 251 252 253 253 254 255 256 256 257 258 258 259 260 261 262 263 265 266 266 267 267 267 268 268 268 269 269 270 270 270 271 271 271 271 271 271 270 270 270 270 269 269 270 270 270 271 271 271 271 272 272 273 274 274 273 272 271 270 269 268 268 267 267 267 268 268 268 268
257 257 256 255 254 253 252 252 252 253 253 254 254 254 254 254 254 254 255 255 256 256 257 258 259 259 259 260 261 262 263 264 265 266 267 268 268 269 269 269 269 270 270 270 271 271 271 272 272 272 271 271 271 271 270 270 270 270 270 271 271 271 271 272 272 273 273 274 275 275 274 273 272 271 269 268 267 267 266 266 266 266 267 267 267
261 261 260 260 259 258 258 258 258 258 259 259 259 259 259 259 258 258 258 258 258 258 258 259 259 260 260 261 262 262 263 264 264 265 266 267 267 267 268 268 269 269 269 270 270 270 270 270 271 271 272 272 272 272 272 272 273 273 273 273 274 274 274 274 274 275 275 275 275 274 273 272 271 270 269 268 267 267 266 266 266 266 267 267 267
261 260 260 260 261 261 261 262 261 262 262 262 262 262 262 262 262 262 262 263 263 263 263 264 264 264 265 265 265 266 266 266 266 267 267 268 268 268 268 269 269 270 270 270 270 271 271 272 272 273 273 274 274 274 274 274 275 275 275 275 275 275 275 275 275 275 275 275 274 273 272 271 270 270 269 268 268 267 267 267 267 267 267 268 268
Height
5771 5772 5773 5774 5774 5774 5775 5775 5775 5775 5775 5776 5776 5776 5776 5778 5779 5779 5779 5780 5781 5782 5783 5783 5784 5785 5786 5786 5787 5788 5789 5789 5790 5791 5793 5794 5795 5796 5798 5799 5799 5800 5801 5801 5800 5800 5800 5801 5801 5802 5802 5803 5804 5804 5804 5804 5804 5804 5805 5805 5805 5806 5807 5808 5808 5809 5809 5810 5809 5809 5809 5809 5809 5809 5809 5809 5810 5809 5809 5809 5810 5809 5808 5808 5808
5770 5771 5772 5772 5773 5773 5773 5774 5775 5775 5775 5775 5776 5776 5776 5777 5778 5779 5779 5780 5780 5781 5781 5782 5783 5783 5784 5785 5786 5786 5787 5788 5790 5791 5792 5793 5794 5796 5797 5797 5798 5799 5799 5799 5799 5799 5799 5799 5800 5800 5801 5802 5803 5803 5803 5803 5803 5803 5804 5804 5804 5805 5806 5807 5808 5808 5809 5810 5809 5809 5809 5809 5809 5809 5809 5809 5809 5809 5809 5809 5809 5809 5808 5807 5808
5768 5769 5770 5771 5772 5772 5772 5773 5774 5774 5774 5775 5775 5776 5776 5776 5777 5778 5778 5779 5779 5780 5781 5781 5782 5783 5783 5784 5785 5786 5787 5787 5788 5789 5791 5792 5793 5794 5795 5796 5797 5797 5797 5797 5797 5798 5798 5798 5799 5799 5800 5801 5801 5802 5802 5802 5803 5803 5803 5803 5803 5804 5805 5806 5807 5808 5809 5809 5809 5809 5808 5808 5808 5808 5808 5808 5808 5808 5808 5808 5808 5808 5808 5807 5807
5766 5767 5768 5769 5770 5771 5771 5772 5773 5773 5774 5774 5774 5774 5775 5775 5776 5777 5778 5778 5778 5779 5780 5781 5782 5782 5783 5784 5785 5786 5786 5786 5787 5788 5789 5791 5792 5793 5794 5795 5795 5796 5796 5796 5796 5796 5797 5797 5798 5798 5799 5800 5800 5801 5801 5801 5802 5802 5802 5802 5802 5803 5804 5805 5806 5807 5808 5808 5808 5808 5808 5807 5807 5807 5807 5807 5807 5807 5807 5807 5807 5807 5807 5807 5807
5764 5765 5766 5768 5768 5769 5770 5771 5772 5772 5772 5773 5773 5773 5773 5774 5775 5775 5776 5777 5777 5778 5778 5780 5781 5782 5782 5783 5783 5784 5785 5785 5785 5787 5789 5790 5791 5792 5793 5794 5794 5794 5795 5795 5795 5795 5796 5796 5796 5797 5798 5798 5799 5799 5800 5800 5801 5801 5801 5801 5802 5802 5803 5803 5804 5806 5806 5807 5807 5807 5807 5806 5806 5806 5806 5806 5806 5806 5806 5806 5806 5806 5806 5806 5806
5761 5763 5764 5765 5766 5767 5768 5769 5770 5771 5771 5771 5771 5771 5772 5773 5773 5774 5774 5775 5775 5776 5777 5778 5779 5780 5780 5781 5781 5782 5782 5783 5784 5786 5787 5788 5789 5791 5791 5792 5793 5793 5793 5794 5794 5794 5795 5795 5795 5796 5796 5797 5797 5798 5798 5799 5799 5800 5801 5801 5801 5801 5802 5802 5803 5804 5805 5805 5806 5806 5806 5805 5805 5805 5805 5805 5804 5804 5804 5805 5805 5805 5805 5805 5805
5759 5761 5762 5763 5764 5765 5766 5767 5768 5769 5769 5769 5769 5769 5770 5771 5771 5772 5772 5772 5773 5774 5775 5776 5777 5778 5778 5778 5778 5779 5780 5782 5783 5784 5785 5786 5788 5788 5789 5790 5791 5791 5792 5792 5793 5793 5794 5794 5794 5794 5795 5795 5796 5796 5797 5797 5798 5799 5800 5800 5801 5801 5801 5802 5802 5803 5803 5804 5804 5805 5805 5805 5804 5804 5804 5804 5803 5803 5803 5803 5803 5803 5803 5804 5804
5757 5758 5760 5761 5762 5763 5764 5765 5766 5767 5767 5767 5767 5767 5768 5769 5770 5770 5770 5770 5771 5772 5774 5775 5775 5776 5776 5776 5777 5778 5779 5781 5782 5783 5784 5785 5786 5786 5787 5788 5789 5789 5790 5791 5791 5792 5792 5793 5793 5793 5794 5794 5794 5795 5795 5795 5796 5798 5798 5799 5800 5800 5801 5801 5802 5802 5802 5802 5803 5803 5804 5804 5803 5804 5804 5803 5803 5802 5802 5802 5802 5802 5802 5802 5802
5754 5756 5757 5758 5759 5761 5762 5763 5764 5764 5764 5764 5764 5765 5765 5766 5767 5768 5768 5768 5769 5770 5772 5773 5774 5774 5774 5775 5776 5777 5778 5779 5780 5781 5782 5783 5784 5785 5785 5786 5787 5788 5788 5789 5789 5790 5790 5791 5791 5792 5793 5793 5793 5794 5794 5794 5795 5796 5797 5798 5799 5799 5800 5800 5801 5801 5801 5801 5801 5802 5802 5802 5802 5802 5803 5802 5802 5801 5801 5801 5801 5801 5801 5802 5801
5752 5754 5755 5756 5757 5759 5760 5761 5762 5762 5762 5762 5762 5762 5763 5764 5765 5765 5766 5766 5767 5768 5769 5770 5771 5772 5772 5773 5774 5775 5776 5777 5778 5779 5780 5781 5782 5783 5784 5784 5785 5786 5786 5787 5788 5788 5789 5789 5790 5791 5791 5792 5792 5793 5793 5793 5794 5795 5795 5796 5797 5798 5798 5799 5800 5800 5800 5800 5800 5801 5801 5801 5801 5801 5801 5801 5800 5800 5800 5800 5800 5800 5800 5801 5800
5750 5752 5753 5755 5756 5757 5758 5758 5759 5759 5759 5759 5759 5760 5761 5762 5762 5763 5763 5764 5765 5766 5767 5768 5769 5770 5770 5771 5772 5773 5774 5774 5775 5776 5778 5779 5780 5781 5782 5783 5783 5784 5784 5785 5786 5787 5787 5788 5789 5790 5790 5791 5791 5792 5792 5792 5793 5793 5794 5795 5795 5796 5797 5797 5798 5798 5799 5799 5799 5799 5799 5800 5800 5800 5800 5799 5799 5799 5799 5799 5799 5799 5799 5799 5799
5748 5749 5751 5753 5754 5755 5756 5756 5757 5757 5757 5757 5757 5758 5759 5759 5760 5760 5761 5762 5763 5763 5764 5765 5766 5767 5769 5770 5771 5771 5771 5772 5773 5775 5776 5777 5778 5779 5780 5781 5781 5782 5783 5784 5785 5786 5786 5787 5788 5788 5789 5789 5790 5790 5791 5791 5791 5792 5793 5793 5794 5794 5795 5795 5796 5796 5797 5797 5797 5798 5798 5798 5798 5798 5798 5798 5797 5797 5797 5797 5797 5797 5797 5797 5797
5746 5747 5749 5751 5752 5753 5753 5754 5754 5755 5755 5755 5755 5756 5756 5757 5757 5758 5759 5760 5760 5761 5762 5764 5764 5765 5767 5768 5769 5769 5770 5771 5773 5774 5775 5776 5776 5777 5778 5779 5780 5781 5782 5783 5784 5785 5786 5786 5787 5787 5788 5788 5789 5789 5789 5790 5790 5791 5791 5792 5792 5793 5793 5793 5794 5794 5795 5795 5796 5796 5796 5796 5796 5796 5796 5796 5795 5795 5795 5795 5795 5795 5795 5795 5795
5742 5744 5746 5747 5748 5750 5751 5752 5752 5752 5752 5752 5752 5753 5754 5754 5755 5756 5757 5758 5758 5759 5760 5762 5763 5763 5764 5766 5767 5768 5769 5771 5772 5773 5773 5774 5775 5776 5777 5778 5779 5780 5782 5782 5783 5784 5785 5785 5786 5787 5787 5787 5788 5788 5788 5789 5789 5789 5790 5790 5790 5790 5791 5792 5792 5793 5793 5794 5794 5794 5794 5795 5795 5795 5794 5794 5793 5793 5793 5794 5794 5794 5794 5793 5793
5738 5739 5741 5742 5745 5747 5748 5749 5750 5750 5750 5750 5750 5751 5752 5752 5753 5754 5755 5755 5756 5757 5758 5759 5761 5761 5762 5763 5765 5766 5768 5769 5770 5771 5772 5773 5774 5775 5776 5778 5779 5780 5781 5782 5782 5783 5783 5784 5785 5786 5786 5786 5786 5787 5787 5787 5787 5788 5788 5788 5788 5789 5789 5790 5790 5791 5792 5792 5792 5793 5793 5793 5793 5793 5793 5792 5792 5791 5792 5792 5792 5792 5792 5792 5792
5734 5733 5733 5734 5738 5742 5745 5746 5747 5747 5747 5748 5748 5749 5750 5751 5751 5751 5752 5752 5753 5755 5756 5757 5758 5759 5760 5761 5763 5764 5766 5768 5769 5770 5772 5773 5774 5775 5776 5777 5778 5779 5780 5780 5781 5781 5782 5783 5784 5784 5785 5785 5785 5785 5786 5786 5786 5786 5786 5786 5787 5787 5788 5788 5789 5789 5790 5790 5790 5791 5791 5791 5791 5791 5791 5791 5791 5791 5791 5791 5791 5791 5791 5790 5790
5734 5733 5731 5731 5733 5737 5741 5743 5744 5745 5745 5746 5746 5747 5748 5748 5748 5748 5749 5749 5750 5752 5754 5755 5756 5757 5757 5759 5761 5763 5765 5766 5768 5769 5771 5772 5773 5774 5775 5776 5777 5777 5778 5779 5779 5779 5780 5781 5782 5783 5783 5784 5784 5784 5784 5785 5785 5785 5785 5785 5785 5786 5786 5787 5787 5787 5787 5788 5788 5788 5789 5789 5789 5789 5789 5789 5789 5790 5790 5790 5789 5789 5789 5789 5789
5735 5738 5738 5736 5734 5734 5738 5740 5741 5742 5743 5743 5744 5744 5744 5744 5744 5745 5746 5747 5749 5751 5753 5755 5756 5756 5756 5758 5761 5762 5763 5765 5766 5767 5768 5769 5770 5771 5772 5774 5775 5776 5776 5777 5777 5778 5779 5779 5780 5781 5782 5782 5783 5783 5783 5783 5783 5783 5784 5784 5784 5785 5785 5785 5785 5785 5786 5786 5786 5786 5787 5787 5787 5787 5787 5787 5788 5788 5788 5788 5788 5787 5787 5787 5787
5729 5734 5737 5737 5735 5735 5736 5738 5739 5740 5740 5741 5741 5740 5739 5739 5740 5742 5745 5747 5749 5751 5753 5755 5755 5755 5756 5758 5759 5760 5761 5762 5764 5765 5766 5767 5768 5769 5770 5771 5772 5773 5774 5775 5776 5776 5777 5778 5779 5779 5780 5781 5781 5782 5782 5782 5782 5782 5783 5783 5783 5784 5784 5784 5784 5784 5784 5784 5784 5784 5784 5785 5785 5785 5785 5785 5785 5786 5786 5786 5786 5786 5785 5785 5785
5722 5727 5732 5733 5733 5733 5734 5735 5737 5737 5738 5738 5737 5736 5737 5738 5739 5743 5745 5747 5749 5750 5751 5752 5753 5753 5754 5756 5757 5758 5759 5760 5761 5763 5764 5764 5765 5766 5768 5769 5770 5772 5773 5774 5774 5775 5775 5776 5777 5778 5779 5779 5780 5780 5780 5781 5781 5781 5782 5782 5783 5783 5783 5783 5783 5783 5782 5782 5783 5782 5782 5782 5782 5782 5783 5783 5783 5783 5784 5784 5784 5784 5784 5784 5784
5718 5723 5727 5729 5729 5729 5730 5732 5734 5734 5735 5736 5735 5737 5739 5740 5742 5744 5745 5746 5747 5747 5748 5749 5750 5751 5753 5754 5755 5756 5757 5758 5760 5762 5762 5763 5764 5765 5766 5768 5770 5771 5772 5773 5774 5774 5774 5775 5775 5776 5777 5777 5778 5778 5779 5779 5780 5780 5781 5781 5782 5782 5782 5782 5782 5782 5781 5781 5781 5781 5781 5781 5781 5781 5781 5781 5781 5781 5782 5782 5782 5782 5782 5782 5782
5714 5719 5724 5725 5725 5725 5726 5728 5730 5731 5732 5733 5735 5738 5741 5742 5743 5743 5743 5743 5744 5746 5746 5747 5748 5750 5752 5753 5755 5755 5756 5757 5759 5761 5762 5762 5763 5765 5766 5768 5769 5771 5772 5772 5773 5773 5774 5774 5774 5774 5775 5775 5776 5776 5777 5777 5778 5779 5779 5780 5780 5780 5780 5780 5780 5780 5780 5780 5780 5779 5779 5779 5779 5779 5779 5780 5780 5780 5780 5780 5780 5780 5780 5780 5780
5711 5715 5719 5720 5722 5723 5723 5724 5726 5727 5729 5731 5734 5737 5739 5739 5740 5740 5740 5741 5743 5744 5745 5746 5748 5750 5751 5752 5752 5753 5755 5756 5758 5760 5761 5762 5763 5764 5765 5767 5768 5769 5770 5771 5772 5772 5772 5772 5772 5773 5773 5773 5774 5774 5775 5775 5776 5777 5777 5778 5778 5778 5778 5778 5778 5778 5778 5778 5778 5778 5778 5778 5778 5778 5778 5778 5778 5778 5778 5778 5778 5778 5778 5778 5778
5711 5713 5716 5718 5721 5722 5722 5722 5723 5725 5727 5729 5731 5734 5735 5736 5736 5736 5737 5739 5740 5741 5743 5744 5746 5748 5748 5749 5750 5751 5753 5754 5756 5758 5759 5760 5761 5762 5763 5764 5765 5767 5768 5768 5769 5769 5770 5770 5770 5771 5771 5771 5772 5772 5773 5773 5774 5774 5775 5775 5775 5776 5776 5776 5776 5776 5776 5776 5776 5776 5776 5776 5776 5776 5776 5777 5777 5776 5776 5776 5776 5776 5776 5775 5775
5711 5712 5715 5717 5719 5720 5721 5722 5722 5723 5725 5727 5729 5731 5732 5732 5733 5733 5734 5735 5737 5739 5740 5742 5743 5743 5744 5746 5748 5749 5750 5751 5753 5755 5756 5757 5758 5759 5760 5761 5762 5763 5764 5765 5766 5766 5767 5767 5767 5768 5768 5769 5770 5770 5771 5771 5771 5772 5772 5772 5773 5773 5773 5773 5774 5774 5774 5774 5774 5774 5775 5775 5775 5775 5775 5775 5775 5775 5774 5774 5774 5774 5774 5773 5773
5709 5710 5712 5713 5715 5717 5719 5720 5720 5721 5723 5725 5726 5726 5726 5726 5728 5730 5732 5733 5735 5737 5739 5740 5741 5741 5743 5744 5745 5746 5748 5749 5750 5752 5753 5754 5755 5757 5758 5758 5759 5760 5760 5761 5762 5763 5763 5764 5765 5765 5766 5767 5767 5768 5768 5769 5769 5769 5770 5770 5770 5770 5770 5771 5771 5772 5772 5772 5773 5773 5773 5773 5773 5773 5773 5773 5773 5773 5773 5772 5772 5772 5772 5772 5772
5705 5706 5708 5709 5711 5714 5715 5717 5717 5718 5719 5721 5722 5723 5723 5723 5725 5728 5731 5732 5734 5735 5737 5738 5740 5741 5742 5742 5743 5743 5744 5746 5747 5749 5750 5751 5752 5754 5755 5756 5756 5757 5757 5758 5759 5759 5760 5761 5762 5763 5763 5764 5765 5765 5766 5766 5766 5767 5767 5767 5767 5768 5768 5768 5769 5769 5770 5770 5771 5771 5771 5771 5771 5771 5771 5771 5771 5771 5770 5770 5770 5770 5770 5770 5770
5701 5702 5704 5706 5708 5711 5713 5714 5714 5714 5716 5718 5719 5720 5720 5721 5724 5727 5729 5730 5731 5732 5733 5734 5736 5738 5739 5740 5740 5740 5741 5743 5745 5746 5748 5749 5750 5751 5752 5752 5753 5753 5754 5755 5756 5756 5757 5758 5759 5760 5760 5761 5762 5762 5763 5763 5764 5764 5764 5765 5765 5766 5766 5766 5766 5767 5767 5768 5768 5768 5769 5769 5769 5769 5769 5768 5768 5768 5768 5768 5768 5768 5768 5768 5767
5699 5700 5702 5705 5707 5709 5710 5711 5711 5713 5715 5717 5717 5717 5718 5720 5722 5725 5727 5728 5728 5729 5730 5731 5733 5734 5735 5736 5737 5737 5739 5740 5741 5743 5745 5746 5747 5747 5748 5749 5749 5750 5751 5752 5753 5754 5754 5755 5756 5756 5757 5757 5758 5759 5760 5760 5761 5762 5762 5762 5763 5763 5764 5764 5764 5765 5765 5765 5765 5766 5766 5766 5766 5766 5766 5766 5766 5765 5765 5765 5765 5765 5765 5765 5764
5697 5699 5701 5704 5706 5707 5708 5708 5709 5711 5713 5715 5716 5715 5716 5718 5720 5723 5725 5726 5726 5727 5727 5728 5728 5729 5731 5733 5734 5735 5736 5737 5738 5739 5741 5742 5743 5743 5744 5745 5746 5747 5748 5749 5750 5751 5752 5752 5753 5753 5754 5754 5755 5756 5757 5758 5758 5759 5759 5760 5760 5761 5761 5762 5762 5762 5762 5763 5763 5763 5763 5763 5763 5763 5763 5763 5763 5762 5762 5762 5762 5761 5761 5761 5760
5696 5698 5700 5702 5704 5705 5705 5705 5705 5708 5710 5713 5714 5714 5714 5716 5718 5721 5722 5724 5725 5724 5724 5725 5726 5727 5728 5730 5731 5732 5733 5733 5734 5736 5737 5738 5739 5740 5740 5741 5743 5744 5745 5746 5747 5748 5749 5750 5750 5751 5751 5751 5752 5753 5754 5754 5755 5756 5756 5757 5757 5758 5758 5759 5759 5759 5760 5760 5760 5760 5760 5760 5760 5760 5760 5760 5759 5759 5758 5758 5757 5757 5757 5756 5756
5694 5696 5698 5701 5702 5703 5703 5703 5703 5705 5708 5710 5712 5713 5712 5713 5715 5718 5719 5721 5723 5723 5722 5723 5725 5726 5727 5728 5729 5729 5730 5731 5732 5733 5734 5735 5736 5736 5737 5737 5739 5741 5742 5743 5744 5745 5746 5747 5747 5748 5748 5748 5749 5749 5750 5751 5752 5752 5753 5753 5754 5754 5755 5756 5756 5756 5756 5757 5757 5757 5757 5757 5757 5756 5756 5756 5755 5755 5754 5754 5753 5753 5752 5752 5751
5692 5694 5696 5698 5700 5701 5701 5702 5702 5704 5705 5708 5709 5710 5710 5711 5713 5715 5716 5718 5720 5720 5719 5721 5722 5723 5724 5725 5726 5727 5728 5729 5730 5731 5732 5733 5733 5734 5734 5735 5736 5737 5739 5740 5741 5742 5742 5743 5744 5744 5744 5745 5745 5746 5747 5748 5749 5749 5750 5751 5751 5752 5752 5752 5753 5753 5753 5753 5753 5753 5752 5752 5752 5752 5752 5751 5751 5751 5750 5750 5749 5749 5748 5748 5747
5690 5692 5694 5696 5697 5698 5699 5700 5701 5702 5703 5705 5707 5708 5708 5710 5711 5712 5713 5714 5716 5716 5717 5719 5720 5721 5722 5723 5724 5725 5725 5726 5727 5728 5729 5730 5731 5731 5732 5733 5733 5735 5736 5737 5738 5738 5739 5739 5740 5740 5740 5741 5742 5743 5744 5745 5746 5746 5747 5747 5748 5748 5749 5749 5749 5749 5749 5748 5748 5748 5748 5748 5747 5747 5747 5746 5746 5746 5745 5745 5745 5744 5744 5744 5744
5687 5689 5690 5692 5694 5695 5696 5697 5699 5700 5701 5702 5703 5704 5705 5707 5707 5708 5710 5711 5712 5712 5714 5716 5717 5718 5719 5720 5721 5721 5722 5723 5724 5725 5726 5727 5728 5729 5730 5731 5732 5732 5733 5734 5735 5736 5736 5736 5736 5736 5737 5738 5739 5740 5740 5741 5741 5742 5742 5743 5743 5744 5744 5744 5744 5744 5744 5744 5744 5744 5744 5743 5743 5742 5742 5741 5741 5740 5740 5740 5740 5740 5739 5740 5739
5684 5686 5687 5689 5691 5692 5694 5695 5696 5697 5699 5700 5700 5701 5702 5703 5704 5704 5706 5707 5708 5709 5711 5713 5714 5715 5715 5717 5718 5718 5719 5721 5721 5722 5723 5723 5724 5726 5728 5729 5730 5730 5731 5732 5732 5733 5733 5733 5732 5733 5734 5735 5735 5736 5737 5737 5737 5738 5738 5738 5739 5739 5740 5740 5740 5740 5739 5739 5739 5739 5739 5739 5738 5737 5737 5736 5736 5735 5735 5735 5735 5735 5734 5735 5734
5681 5683 5684 5686 5688 5689 5691 5692 5694 5695 5696 5696 5697 5698 5699 5700 5700 5701 5703 5704 5705 5706 5708 5710 5711 5711 5712 5714 5716 5715 5717 5719 5718 5718 5720 5720 5721 5723 5725 5726 5727 5727 5728 5728 5728 5729 5729 5729 5729 5729 5730 5731 5731 5732 5732 5733 5733 5734 5734 5734 5735 5735 5735 5735 5735 5735 5735 5735 5735 5735 5734 5734 5733 5732 5731 5731 5730 5730 5730 5730 5730 5729 5729 5728 5728
5677 5679 5681 5683 5685 5687 5688 5689 5690 5691 5692 5693 5694 5695 5696 5697 5698 5699 5700 5700 5701 5703 5705 5706 5707 5707 5708 5710 5712 5712 5714 5716 5715 5715 5717 5717 5718 5720 5721 5722 5723 5723 5723 5723 5723 5724 5724 5724 5724 5724 5724 5726 5726 5727 5727 5728 5728 5729 5729 5729 5730 5730 5730 5730 5729 5729 5729 5730 5730 5729 5729 5728 5728 5727 5725 5724 5724 5724 5724 5724 5723 5722 5722 5722 5721
5675 5676 5679 5681 5682 5683 5684 5685 5687 5688 5689 5690 5691 5692 5694 5695 5695 5696 5697 5698 5698 5699 5701 5702 5703 5704 5705 5706 5708 5709 5710 5711 5711 5712 5713 5714 5714 5715 5715 5716 5716 5717 5717 5718 5719 5719 5719 5719 5718 5718 5719 5720 5721 5722 5723 5723 5723 5723 5723 5723 5724 5724 5724 5724 5723 5723 5723 5724 5724 5723 5722 5722 5721 5720 5718 5717 5717 5717 5718 5717 5716 5716 5716 5716 5715
5672 5674 5676 5677 5678 5679 5680 5681 5683 5684 5686 5687 5688 5689 5690 5691 5692 5694 5695 5695 5696 5697 5697 5698 5700 5701 5701 5702 5704 5705 5705 5707 5707 5708 5710 5711 5711 5712 5711 5711 5711 5711 5711 5712 5712 5713 5714 5714 5713 5713 5713 5713 5715 5716 5716 5717 5717 5716 5716 5716 5716 5717 5717 5717 5717 5717 5717 5717 5716 5716 5715 5714 5714 5713 5711 5710 5709 5710 5710 5709 5709 5709 5709 5709 5708
5668 5670 5671 5673 5674 5675 5676 5678 5679 5681 5682 5684 5685 5686 5687 5688 5689 5690 5691 5692 5693 5694 5694 5695 5696 5697 5698 5699 5700 5700 5701 5702 5703 5704 5706 5707 5707 5708 5708 5707 5708 5707 5707 5707 5707 5707 5708 5708 5707 5708 5708 5708 5708 5709 5709 5709 5709 5709 5709 5709 5709 5709 5709 5709 5709 5709 5709 5709 5709 5708 5708 5707 5707 5706 5704 5703 5702 5702 5702 5701 5702 5702 5701 5701 5699
5663 5665 5666 5668 5670 5672 5673 5674 5676 5678 5679 5680 5682 5683 5684 5685 5685 5686 5687 5688 5689 5690 5691 5691 5692 5693 5693 5694 5695 5696 5697 5698 5699 5700 5701 5702 5702 5703 5702 5702 5703 5703 5702 5703 5704 5703 5703 5703 5702 5702 5702 5702 5702 5701 5701 5701 5702 5702 5702 5702 5702 5702 5702 5702 5702 5702 5701 5702 5701 5701 5700 5700 5699 5699 5698 5697 5696 5695 5695 5694 5695 5695 5693 5692 5691
5659 5660 5662 5664 5666 5667 5669 5670 5672 5673 5675 5676 5677 5679 5680 5681 5681 5682 5683 5683 5684 5685 5686 5687 5687 5688 5689 5690 5690 5691 5692 5692 5693 5694 5695 5696 5696 5697 5697 5697 5697 5697 5697 5698 5698 5698 5698 5698 5697 5697 5696 5696 5695 5695 5694 5694 5693 5693 5694 5694 5694 5694 5694 5694 5694 5694 5693 5693 5693 5693 5692 5692 5691 5691 5690 5689 5688 5688 5687 5687 5687 5687 5685 5684 5684
5655 5656 5658 5659 5661 5663 5664 5666 5667 5668 5670 5671 5672 5673 5674 5676 5677 5678 5678 5679 5679 5679 5680 5681 5682 5683 5684 5685 5685 5686 5686 5686 5687 5687 5688 5688 5689 5690 5690 5690 5690 5691 5691 5691 5691 5691 5691 5691 5690 5690 5689 5689 5688 5688 5687 5686 5685 5685 5684 5684 5685 5685 5685 5685 5685 5685 5685 5685 5684 5684 5683 5683 5682 5682 5681 5680 5679 5679 5679 5678 5677 5677 5676 5675 5675
5651 5652 5654 5655 5657 5658 5659 5661 5662 5663 5664 5665 5666 5667 5669 5670 5671 5672 5673 5674 5674 5675 5675 5676 5677 5677 5678 5679 5680 5680 5680 5681 5681 5681 5682 5682 5682 5683 5683 5684 5684 5684 5684 5684 5684 5684 5684 5683 5683 5682 5681 5681 5681 5680 5679 5678 5678 5677 5676 5675 5675 5675 5675 5675 5675 5676 5676 5676 5675 5675 5674 5674 5673 5672 5671 5671 5670 5670 5669 5668 5668 5667 5666 5666 5666
5646 5648 5649 5651 5652 5653 5654 5656 5657 5658 5659 5660 5661 5662 5663 5664 5666 5667 5667 5668 5669 5670 5670 5671 5671 5672 5673 5673 5674 5674 5675 5675 5675 5675 5676 5676 5676 5676 5677 5677 5677 5677 5677 5677 5676 5676 5676 5675 5675 5675 5674 5673 5672 5672 5671 5670 5669 5668 5668 5666 5666 5666 5665 5665 5666 5666 5666 5666 5666 5666 5665 5665 5664 5663 5662 5661 5661 5660 5658 5657 5657 5657 5656 5656 5656
5642 5644 5645 5646 5648 5649 5650 5651 5652 5652 5653 5654 5655 5657 5658 5659 5660 5661 5661 5662 5663 5663 5664 5665 5665 5666 5667 5667 5668 5668 5669 5669 5669 5669 5669 5669 5669 5669 5669 5669 5670 5670 5669 5669 5668 5668 5668 5668 5667 5667 5666 5665 5664 5663 5662 5660 5660 5660 5659 5658 5657 5657 5656 5656 5656 5656 5656 5656 5656 5656 5655 5655 5654 5653 5652 5651 5651 5650 5649 5647 5646 5645 5645 5646 5645
5639 5640 5641 5642 5643 5645 5645 5646 5647 5648 5648 5649 5650 5652 5653 5654 5655 5655 5656 5656 5657 5657 5658 5658 5659 5659 5660 5660 5661 5661 5662 5662 5662 5661 5661 5662 5662 5662 5662 5662 5662 5662 5662 5661 5661 5660 5660 5660 5660 5659 5658 5657 5656 5654 5652 5651 5651 5650 5650 5649 5648 5648 5647 5647 5646 5646 5646 5646 5646 5645 5644 5643 5643 5642 5641 5640 5640 5639 5638 5637 5635 5634 5634 5634 5634
5634 5635 5636 5637 5639 5640 5640 5641 5642 5642 5643 5644 5645 5646 5647 5648 5649 5650 5650 5650 5651 5652 5652 5652 5653 5653 5653 5654 5654 5655 5655 5655 5655 5655 5654 5654 5655 5655 5655 5655 5655 5655 5654 5654 5653 5653 5652 5652 5651 5650 5650 5649 5647 5645 5643 5643 5642 5641 5641 5640 5639 5638 5638 5637 5636 5635 5635 5635 5634 5633 5633 5631 5630 5629 5629 5628 5628 5627 5626 5625 5624 5624 5623 5622 5622
5629 5630 5631 5632 5633 5634 5634 5635 5636 5637 5637 5638 5639 5640 5641 5641 5642 5643 5643 5643 5644 5644 5645 5645 5646 5646 5647 5647 5647 5648 5648 5648 5648 5648 5647 5647 5647 5648 5648 5647 5646 5646 5646 5646 5645 5645 5644 5643 5643 5642 5641 5640 5639 5637 5635 5634 5633 5632 5631 5630 5629 5628 5627 5627 5625 5623 5624 5624 5622 5621 5620 5619 5618 5617 5616 5616 5615 5615 5614 5614 5613 5613 5612 5612 5612
5625 5625 5626 5626 5627 5627 5628 5629 5629 5630 5631 5631 5632 5633 5634 5634 5635 5636 5635 5635 5636 5636 5637 5637 5638 5638 5638 5639 5639 5640 5640 5640 5640 5640 5640 5639 5638 5639 5639 5639 5638 5637 5637 5637 5637 5636 5635 5634 5634 5633 5632 5630 5628 5627 5626 5625 5623 5622 5620 5619 5618 5617 5616 5615 5613 5612 5611 5611 5609 5609 5608 5607 5606 5605 5604 5603 5603 5603 5604 5603 5603 5602 5602 5602 5602